sat.trackr.live / text

‹ back to catalog

2026-134C

NORAD 69540 · 2026-134C

PAYLOAD ACTIVE UNKNOWN

§ Identity

Operator
Country
PRC
Launch date
2026-06-15
Launch site
JSC
Launch vehicle
Mass (kg)
RCS (m²)

External: N2YO · Heavens-Above · Gunter

§ Orbital elements

Epoch: 2026-09-19T04:10:15.601152Z

Period
95.41 min
Inclination
97.6904°
Eccentricity
0.0017383
Mean motion
15.09205948 rev/d
Perigee alt
526.6 km
Apogee alt
550.6 km
Semi-major
6,916.8 km
B*
1.5734e-4
RAAN
332.6440°
Arg perigee
320.4297°
Mean anomaly
39.5661°
Rev number
1,448

§ Raw data

2026-134C1 69540U 26134C   26262.17379168  .00002443  00000+0  15734-3 0  99952 69540  97.6904 332.6440 0017383 320.4297  39.5661 15.09205948 14482

JSON: /api/v1/satellites/69540 · /tle

For live sub-satellite position, see the globe view (requires WebGL).

§ Visibility from observer

Set your observer location to see the next 7 days of passes ≥ 10°. The values pass through the URL so the page stays shareable.

No JS? Fill the form by hand. The geolocation button needs JavaScript.